This is the latest recevied weather packets stored in our database for station/object K9ABJ. If no packets are shown the sender has not sent any weather packets the latest 10 day(s).
| Time | Temp. | Humidity | Pressure | Rain* | Wind** | Luminosity | Snow |
|---|---|---|---|---|---|---|---|
| 1787756307 | 22.78° C | 78% | 1015.6 hPa | 0 mm | - | 201 W/m² | - |
| 1787756001 | 22.22° C | 78% | 1015.7 hPa | 0 mm | - | 191 W/m² | - |
| 1787755701 | 22.22° C | 78% | 1015.8 hPa | 0 mm | - | 148 W/m² | - |
| 1787755397 | 22.22° C | 77% | 1015.5 hPa | 0 mm | - | 192 W/m² | - |
| 1787755096 | 22.22° C | 78% | 1015.5 hPa | 0 mm | - | 194 W/m² | - |
| 1787754790 | 22.22° C | 77% | 1015.4 hPa | 0 mm | - | 126 W/m² | - |
| 1787754488 | 22.78° C | 74% | 1015.4 hPa | 0 mm | - | 158 W/m² | - |
| 1787754183 | 22.78° C | 76% | 1015.7 hPa | 0 mm | - | 294 W/m² | - |
| 1787753877 | 22.22° C | 77% | 1015.6 hPa | 0 mm | - | 306 W/m² | - |
| 1787753577 | 21.67° C | 76% | 1015.6 hPa | 0 mm | - | 256 W/m² | - |
| 1787753275 | 21.67° C | 77% | 1015.7 hPa | 0 mm | - | 215 W/m² | - |
| 1787752970 | 21.67° C | 76% | 1015.6 hPa | 0 mm | - | 402 W/m² | - |
| 1787752669 | 22.22° C | 76% | 1015.7 hPa | 0 mm | - | 275 W/m² | - |
| 1787752365 | 21.67° C | 78% | 1015.6 hPa | 0 mm | - | 252 W/m² | - |
| 1787752064 | 20.56° C | 80% | 1015.7 hPa | 0 mm | - | 248 W/m² | - |
| 1787751759 | 20.56° C | 81% | 1015.7 hPa | 0 mm | - | 137 W/m² | - |
| 1787751454 | 20.56° C | 80% | 1015.7 hPa | 0 mm | - | 91 W/m² | - |
| 1787751149 | 20.56° C | 79% | 1015.6 hPa | 0 mm | - | 141 W/m² | - |
| 1787750845 | 20.56° C | 80% | 1015.8 hPa | 0 mm | - | 144 W/m² | - |
| 1787750540 | 20.56° C | 79% | 1015.6 hPa | 0 mm | - | 135 W/m² | - |
| 1787750235 | 20.56° C | 79% | 1015.7 hPa | 0 mm | - | 213 W/m² | - |
| 1787749930 | 21.11° C | 79% | 1015.8 hPa | 0 mm | - | 242 W/m² | - |
| 1787749626 | 20° C | 81% | 1016 hPa | 0 mm | - | 192 W/m² | - |
| 1787749322 | 20.56° C | 81% | 1015.8 hPa | 0 mm | - | 185 W/m² | - |
| 1787749022 | 18.89° C | 83% | 1015.9 hPa | 0 mm | - | 201 W/m² | - |
* Rain latest hour (hover to see other rain measurements)
** Current wind speed in m/s (hover to see current wind gust speed)